User: anonymous   Login
Location: Unspecified
(0.0000°N, 0.0000°E)
Time: 19:21:44
(UTC+00:00)
Language:

PAYLOAD H - Orbit

View from above orbital plane
View from above orbital plane
View from above satellite
View from above satellite

Ground track
Ground track

The orbit data is extracted from the following two-line orbital elements,

1 27847U 03031H   18350.99530168  .00000029  00000-0  32597-4 0  9994
2 27847  98.6838 355.4330 0009422 170.8483 189.2868 14.22137088802270
Epoch (UTC): 16 December 2018 23:53:14
Eccentricity: 0.0009422
inclination: 98.6838°
perigee height: 811 km
apogee height: 825 km
right ascension of ascending node: 355.4330°
argument of perigee: 170.8483°
revolutions per day: 14.22137088
mean anomaly at epoch: 189.2868°
orbit number at epoch: 80227

The dashed part of the orbit path shows where the satellite is in the earth's shadow,  

DLR